weather.gov     
National Weather Service

Terminal Aerodrome Forecast
NWS Homepage
This page is being discontinued on March 12, 2014.
The same data is available at this site. Please update your bookmarks.
Thank you, and we apologize for the inconvenience.
Please send an email to SR-SRH.Webmaster@noaa.gov with any concerns.


Current Version
Previous Version:    01  02  03  04  05  06  07  08  09  10  11  12  13  14  15  16  17  18  19  20  21  22  23  24  25  26  27  
[Printable]
893
FTUS44 KBMX 222300
TAFBHM
TAF
KBHM 222339Z 2300/2324 11009KT P6SM SCT050 SCT250
     FM230100 12009G16KT P6SM OVC020
     FM230800 12011G18KT P6SM SHRA OVC015
     FM231300 13012G22KT 4SM TSRA BKN007CB OVC030CB
     FM231900 17015G25KT 4SM TSRA SCT007CB BKN015 OVC025=


U.S. Dept. of Commerce
NOAA National Weather Service
1325 East West Highway
Silver Spring, MD 20910
E-mail: w-nws.webmaster@noaa.gov
Page last modified: May 16, 2007
NATIONAL WEATHER SERVICE: for Safety, for Work, for Fun - FOR LIFE